TANYUSHA 1 (42911 NORAD) Tracking and Keplerian Element Data

This shows tracking and keplerian element data for the satellite.

Feedback or suggestion? Click here.




ElementValue
Catalog42911
NameTANYUSHA 1
Epoch Orbit11113
Epoch Day206.8728238
Epoch Year2019
RAAN77.7556
Inclination51.6124
Eccentricity0.0009194
Argument of Perigee255.4214
Mean Anonmoly212.1736
Mean Motion16.19841646
Decay Rate0.00895154
L11 42911U 98067NA 19206.87282380 .00895154 11839-4 45254-3 0 9994
L22 42911 51.6124 77.7556 0009194 255.4214 212.1736 16.19841646111136



Live tracking and technical data element details for TANYUSHA 1 (NORAD 42911). TANYUSHA 1 can be tracked NOW for your location showing map with azimuth and elevation plus other details from your city location.







IsCatalogInMostPopularTable: catalog: 42911, numindb: 560
Update: records affected: 1



GetName: 42911 TANYUSHA 1

Hit Count: updated at: Fri, 02 Dec 2022 13:12:29 GMT